User: anonymous   Login
Location: Unspecified
(0.0000°N, 0.0000°E)
Time: 09:56:17
(UTC+00:00)
Language:

SR 7B - Orbit

View from above orbital plane
View from above orbital plane
View from above satellite
View from above satellite

Ground track
Ground track

The orbit data is extracted from the following two-line orbital elements,

1 01291U 65016D   18175.82120936 -.00000053  00000-0 -28109-6 0  9990
2 01291  70.0796 309.4361 0021965 339.1055  20.9151 13.94566266710834
Epoch (UTC): 24 June 2018 19:42:32
Eccentricity: 0.0021965
inclination: 70.0796°
perigee height: 896 km
apogee height: 928 km
right ascension of ascending node: 309.4361°
argument of perigee: 339.1055°
revolutions per day: 13.94566266
mean anomaly at epoch: 20.9151°
orbit number at epoch: 71083

The dashed part of the orbit path shows where the satellite is in the earth's shadow,  

DLR